User: anonymous   Login
Location: Emblem
(62.4273°N, 6.4710°E)
Time: 12:50:50
(UTC+01:00)
Language:

Transit 4A - Orbit

View from above orbital plane
View from above orbital plane
View from above satellite
View from above satellite

Ground track
Ground track

The orbit data is extracted from the following two-line orbital elements,

1 00116U 61015A   24064.91909286  .00000035  00000-0  85906-4 0  9991
2 00116  66.8092 131.7601 0070899 142.1098 218.5002 13.92005835180573
Epoch (UTC): 04 March 2024 22:03:29
Eccentricity: 0.0070899
inclination: 66.8092°
perigee height: 870 km
apogee height: 973 km
right ascension of ascending node: 131.7601°
argument of perigee: 142.1098°
revolutions per day: 13.92005835
mean anomaly at epoch: 218.5002°
orbit number at epoch: 18057

The dashed part of the orbit path shows where the satellite is in the earth's shadow,  

DLR